Home > Weather > Germany > Hof (Saale) > Past weeks

Flag for Germany Weather past 2 weeks in Hof (Saale), Bavaria, Germany

47 °F

Drizzle. Low clouds.

Feels Like: 44 °F
Forecast: 37 / 45 °F
Wind: 6 mph from West

Location: Hof

Current Time: Dec 2, 2015 at 6:56:55 AM

Latest Report: Dec 2, 2015 at 4:00 AM

Visibility: 7 mi

Pressure: 30.30 "Hg

Humidity: 93%

Dew point: 45 °F

Location of Hof (Saale)Location

Historic Weather in Hof (Saale) — Graph


Hof (Saale) temperature yesterday

Maximum temperature yesterday: 47 °F (at 11:00 PM)
Minimum temperature yesterday: 42 °F (at 10:00 AM)
Average temperature yesterday: 44 °F

Past Weeks' High & Low Weather Summary

High54 °F (Nov 18, 3:00 AM)99% (Nov 27, 10:00 AM)30.33 "Hg (Nov 27, 10:00 AM)
Low27 °F (Nov 28, 1:00 AM)61% (Nov 18, 8:00 AM)29.41 "Hg (Nov 21, 12:00 PM)
Average37 °F87%29.92 "Hg
* Reported Nov 17 4:00 AM — Dec 2 4:00 AM, Hof (Saale), Weather by CustomWeather, © 2015

Note: Actual official high and low records may vary slightly from our data, if they occured in-between our weather recording intervals... More about our weather records


Hof (Saale) weather history for previous 24 hours

Time TempWeatherWind HumidityBarometerVisibility
4:00 AM
Wed, Dec 2
47 °FDrizzle. Low clouds.6 mph93%30.30 "Hg7 mi
3:00 AM47 °FDrizzle. Low clouds.7 mph94%30.30 "Hg6 mi
1:00 AM48 °FDrizzle. Low clouds.7 mph94%30.29 "Hg6 mi
11:00 PM
Tue, Dec 1
47 °FLow clouds.5 mph94%30.28 "Hg12 mi
9:00 PM45 °FLight rain. Low clouds.5 mph94%30.28 "Hg6 mi
8:00 PM43 °FLight rain. Low clouds.1 mph97%30.29 "Hg5 mi
7:00 PM43 °FLight rain. Overcast.1 mph94%30.28 "Hg5 mi
6:00 PM44 °FLight rain. Low clouds.5 mph92%30.27 "Hg6 mi
5:00 PM44 °FLight rain. Low clouds.5 mph90%30.25 "Hg11 mi
4:00 PM44 °FLight rain. Low clouds.5 mph90%30.24 "Hg22 mi
3:00 PM42 °FLight rain. Low clouds.1 mph91%30.24 "Hg16 mi
2:00 PM43 °FLow clouds.1 mph91%30.22 "Hg22 mi
1:00 PM43 °FLow clouds.2 mph88%30.20 "Hg19 mi
12:00 PM43 °FLow clouds.3 mph90%30.20 "Hg16 mi
11:00 AM43 °FOvercast.2 mph91%30.20 "Hg9 mi
10:00 AM42 °FLight rain. Overcast.2 mph94%30.19 "Hg3 mi
8:00 AM44 °FLight rain. Low clouds.6 mph93%30.12 "Hg2 mi
7:00 AM46 °FLight rain. Overcast.7 mph93%30.07 "Hg2 mi
6:00 AM46 °FRain. Low clouds.7 mph93%30.03 "Hg2 mi
Weather by CustomWeather, © 2015

See weather overviewHow to use our weather pages